星链-5725 (STARLINK-5725 )

导读

STARLINK-5725是美国SpaceX公司于2023年2月12日发射的星链第二代低轨互联网卫星,属于星链全球卫星互联网星座组网的一部分。它运行在近地轨道,配备相控阵通信天线与氪离子推进系统,支持高速低延迟卫星互联网接入,可为全球偏远地区提供宽带服务,同时具备自主轨道机动和避碰能力,寿命末期会主动离轨在大气层烧毁,减少空间碎片。

基本信息
目录编号:
55605
目录名称:
STARLINK-5725
国际标识:
2023-020AN
轨道中心:
EARTH
卫星名称:
星链-5725
卫星全名:
星链-5725 (STARLINK-5725 )
卫星状态:
在轨 (已飞行1219 天)
发射日期:
2023-02-12 UTC
国别 :
美国 (US)
星等 :
--
轨道信息
数据来源 国际轨道数据 AOE轨道数据
星历时间 2026-06-14T14:55:37+0800
19小时前
查看轨道信息
2026-06-11T10:00:00+0800
4天前
查看轨道信息
半长轴 6861.256km 6861.193km
偏心率 0.0000705 0.000139
轨道倾角 43.003° 43.000°
近地点辐角 269.250° 259.359°
升交点赤经 168.625° 186.727°
平近点角 90.827° 93.367°
近地点 482.635km 482.102km
远地点 483.603km 484.01km
周期 94.268分钟 94.267分钟
每日圈数 15.275567 15.275778
详细信息
固有亮度:
5
最大亮度:
2.5
卫星平台:
Starlink v1.5
覆盖范围:
全球
运营商:
太空探索技术公司
运营商所在国:
美国
制造商(研发单位):
太空探索技术公司
制造商所在国:
美国
使用方式:
暂无
卫星简介
星链(Starlink)计划是由太空探索技术公司(SpaceX)提出的一个巨型低轨卫星互联网星座项目,计划在2019年至2024年间在太空搭建由约1.2万颗卫星组成的“星链”网络,其中1584颗将部署在地球上空550千米处的近地轨道,并从2020年开始工作。该卫星仍在工作。
2D轨道图
3D轨道图
轨道高度分析图
轨道倾角分析图
轨道综合分析图
查看轨道综合分析图